Probability
13 87 100 100 100 100 97 97 97 87 61 45 19 13 0 0 0 0 0 0 0 0 0 0 0 0 0 0 0 0 0 0 0 0 0 0 0 0 0 0 0 0 0
26 94 100 100 100 100 97 97 94 77 55 29 16 6 0 0 0 0 0 0 0 0 0 0 0 0 0 0 0 0 0 0 0 0 0 0 0 0 0 0 0 0 0
68 97 100 100 100 100 97 97 77 61 42 26 13 3 3 3 0 0 0 0 0 0 0 0 0 0 0 0 0 0 0 0 0 0 0 0 0 0 0 0 0 0 0
84 97 100 100 100 100 97 87 68 45 32 16 3 6 6 3 0 0 0 0 0 0 0 0 0 0 0 0 0 0 0 0 0 0 0 0 0 0 0 0 0 0 0
68 90 100 100 100 100 90 81 55 42 19 10 3 3 3 3 6 0 0 0 0 0 0 0 0 0 0 0 0 0 0 0 0 0 0 0 0 0 0 0 0 0 0
45 84 100 100 100 94 84 74 52 35 13 13 3 3 6 6 0 0 0 0 0 0 0 0 0 0 0 0 0 0 0 0 0 0 0 0 0 0 0 0 0 0 0
58 87 100 100 100 90 71 68 55 19 13 3 3 10 13 6 0 0 0 0 0 0 0 0 0 0 0 0 0 0 0 0 0 0 0 0 0 0 0 0 0 0 0
77 90 100 97 97 90 71 61 48 26 10 6 0 10 3 0 0 0 0 0 0 0 0 0 0 0 0 0 0 0 0 0 0 0 0 0 0 0 0 0 0 0 0
74 87 94 90 84 87 65 65 48 23 6 3 3 3 0 0 0 0 0 0 0 0 0 0 0 0 0 0 0 0 0 0 0 0 0 0 0 0 0 0 0 0 0
48 77 55 58 52 55 45 45 23 6 3 3 0 0 0 0 0 0 0 0 0 0 0 0 0 0 0 0 0 0 0 0 0 0 0 0 0 0 0 0 0 0 0
32 16 16 23 23 16 16 16 3 3 3 0 0 0 0 0 0 0 0 0 0 0 0 0 0 0 0 0 0 0 0 0 0 0 0 0 0 0 0 0 0 0 0
13 13 6 3 10 6 10 3 0 0 0 0 0 0 0 0 0 0 0 0 0 0 0 0 0 0 0 0 0 0 0 0 0 0 0 0 0 0 0 0 0 0 0
6 6 6 6 6 6 3 0 0 0 0 0 0 0 0 0 0 0 0 0 0 0 0 0 0 0 0 0 0 0 0 0 0 0 0 0 0 0 0 0 0 0 0
0 0 0 3 3 3 0 0 0 0 0 0 0 0 0 0 0 0 0 0 0 0 0 0 0 0 0 0 0 0 0 0 0 0 0 0 0 0 0 0 0 0 0
0 0 0 0 3 3 0 0 0 0 0 0 0 0 0 0 0 0 0 0 0 0 0 0 0 0 0 0 0 0 0 0 0 0 0 0 0 0 0 0 0 0 0
0 0 0 0 3 3 0 0 0 0 0 0 0 0 0 0 0 0 0 0 0 0 0 0 0 0 0 0 0 0 0 0 0 0 0 0 0 0 0 0 0 0 0
0 0 0 0 0 0 0 0 0 0 0 0 0 0 0 0 0 0 0 0 0 0 0 0 0 0 0 0 0 0 0 0 0 0 0 0 0 0 0 0 0 0 0
0 0 0 0 0 0 0 0 0 0 0 0 0 0 0 0 0 0 0 0 0 0 0 0 0 0 0 0 0 0 0 0 0 0 0 0 0 0 0 0 0 0 0
0 0 0 0 0 0 0 0 0 0 0 0 0 0 0 0 0 0 0 0 0 0 0 0 0 0 0 0 0 0 0 0 0 0 0 0 0 0 0 0 0 0 0
0 0 0 0 0 0 0 0 0 0 0 0 0 0 0 0 0 0 0 0 0 0 0 0 0 0 0 0 0 0 0 0 0 0 0 0 0 0 0 0 0 0 0
0 0 0 0 0 0 0 0 0 0 0 0 0 0 0 0 0 0 0 0 0 0 0 0 0 0 0 0 0 0 0 0 0 0 0 0 0 0 0 0 0 0 0
0 0 0 0 0 0 0 0 0 0 0 0 0 0 0 0 0 0 0 0 0 0 0 0 0 0 0 0 0 0 0 0 0 0 0 0 0 0 0 0 0 0 0
0 0 0 0 0 0 0 0 0 0 0 0 0 0 0 0 0 0 0 0 0 0 0 0 0 0 0 0 0 0 0 0 0 0 0 0 0 0 0 0 0 0 0
0 0 0 0 0 0 0 0 0 0 0 0 0 0 0 0 0 0 0 0 0 0 0 0 0 0 0 0 0 0 0 0 0 0 0 0 0 0 0 0 0 0 0
0 0 0 0 0 0 0 0 0 0 0 0 0 0 0 0 0 0 0 0 0 0 0 0 0 0 0 0 0 0 0 0 0 0 0 0 0 0 0 0 0 0 0
0 0 0 0 0 0 0 0 0 0 0 0 0 0 0 0 0 0 0 0 0 0 0 0 0 0 0 0 0 0 0 0 0 0 0 0 0 0 0 0 0 0 0
Height
5890 5891 5892 5893 5894 5894 5895 5895 5896 5896 5897 5897 5897 5897 5897 5897 5897 5897 5897 5896 5896 5895 5894 5894 5893 5892 5892 5891 5890 5889 5888 5887 5886 5885 5884 5882 5881 5879 5878 5877 5875 5873 5872
5888 5889 5891 5892 5892 5893 5894 5894 5895 5895 5896 5896 5896 5896 5896 5896 5896 5896 5895 5895 5894 5893 5893 5892 5891 5891 5890 5889 5888 5887 5886 5885 5884 5883 5881 5880 5878 5877 5875 5874 5872 5871 5869
5886 5888 5889 5890 5891 5892 5892 5893 5894 5894 5895 5895 5895 5895 5895 5895 5895 5895 5894 5893 5893 5892 5891 5890 5889 5889 5888 5887 5886 5884 5883 5882 5881 5880 5879 5877 5876 5874 5872 5871 5869 5868 5866
5884 5886 5887 5889 5890 5890 5891 5892 5893 5893 5894 5894 5894 5894 5894 5894 5893 5893 5892 5892 5891 5890 5889 5888 5887 5886 5885 5884 5883 5882 5880 5879 5878 5877 5875 5874 5873 5871 5869 5868 5866 5865 5863
5882 5884 5885 5887 5888 5889 5890 5891 5891 5892 5892 5892 5893 5893 5892 5892 5892 5891 5890 5889 5889 5888 5887 5886 5885 5884 5882 5881 5880 5879 5877 5876 5875 5874 5872 5871 5869 5868 5866 5865 5863 5862 5860
5880 5881 5883 5885 5886 5887 5888 5889 5890 5890 5891 5891 5891 5891 5890 5890 5890 5889 5888 5887 5886 5885 5884 5883 5882 5881 5880 5878 5877 5876 5874 5873 5872 5870 5869 5868 5866 5865 5863 5862 5861 5859 5857
5877 5879 5881 5883 5884 5886 5887 5887 5888 5889 5889 5889 5889 5889 5888 5888 5887 5886 5886 5885 5884 5882 5881 5880 5879 5878 5877 5876 5874 5873 5872 5870 5869 5867 5866 5865 5863 5862 5860 5859 5857 5856 5854
5874 5876 5878 5880 5882 5883 5885 5886 5886 5887 5887 5887 5887 5887 5886 5885 5885 5884 5883 5882 5881 5880 5878 5877 5876 5875 5874 5873 5871 5870 5868 5867 5866 5864 5863 5861 5860 5858 5857 5856 5854 5853 5851
5871 5873 5875 5877 5879 5881 5882 5883 5884 5884 5885 5885 5885 5884 5884 5883 5882 5881 5880 5879 5878 5877 5876 5874 5873 5872 5871 5870 5868 5867 5865 5864 5862 5861 5859 5858 5856 5855 5854 5852 5851 5849 5848
5868 5870 5872 5874 5876 5878 5879 5880 5881 5882 5882 5882 5882 5882 5881 5880 5879 5878 5877 5876 5875 5873 5872 5871 5870 5869 5868 5866 5865 5864 5862 5860 5859 5858 5856 5854 5853 5851 5850 5848 5847 5845 5844
5864 5867 5869 5871 5873 5874 5876 5877 5878 5878 5879 5879 5879 5878 5878 5877 5876 5875 5873 5872 5871 5870 5869 5868 5866 5865 5864 5863 5861 5860 5858 5857 5855 5854 5852 5851 5849 5847 5846 5844 5843 5841 5840
5860 5863 5865 5867 5869 5870 5872 5873 5874 5874 5875 5875 5875 5875 5874 5873 5872 5871 5870 5869 5868 5867 5865 5864 5863 5861 5860 5859 5857 5856 5855 5853 5851 5850 5848 5847 5845 5843 5842 5840 5838 5837 5835
5855 5858 5861 5863 5865 5866 5868 5869 5870 5870 5870 5871 5871 5870 5870 5869 5868 5867 5866 5865 5864 5863 5861 5860 5859 5857 5856 5855 5853 5852 5850 5849 5847 5845 5844 5842 5840 5839 5837 5835 5834 5832 5830
5851 5853 5856 5858 5860 5862 5863 5864 5865 5866 5866 5866 5866 5866 5865 5865 5864 5862 5861 5860 5859 5858 5857 5856 5855 5853 5852 5850 5849 5847 5846 5844 5842 5840 5839 5837 5835 5834 5832 5830 5828 5827 5825
5846 5848 5851 5853 5855 5857 5859 5860 5861 5861 5861 5861 5861 5861 5861 5860 5859 5858 5857 5856 5854 5853 5852 5851 5850 5848 5847 5845 5843 5842 5840 5838 5837 5835 5833 5831 5829 5827 5826 5824 5822 5820 5819
5840 5843 5846 5848 5850 5852 5854 5855 5856 5856 5856 5857 5856 5856 5855 5855 5854 5853 5852 5851 5849 5848 5847 5846 5844 5843 5841 5839 5837 5835 5834 5832 5830 5829 5827 5825 5823 5821 5819 5817 5815 5813 5812
5834 5837 5840 5843 5845 5847 5848 5849 5850 5851 5851 5851 5851 5850 5850 5849 5849 5848 5847 5846 5844 5843 5841 5840 5838 5836 5835 5833 5831 5829 5827 5825 5823 5821 5819 5817 5815 5813 5811 5809 5807 5806 5804
5827 5831 5834 5836 5839 5841 5842 5843 5844 5845 5846 5846 5845 5845 5844 5843 5843 5842 5841 5840 5838 5837 5835 5833 5831 5829 5828 5826 5824 5821 5819 5817 5815 5813 5811 5809 5807 5805 5803 5801 5799 5797 5796
5821 5824 5827 5830 5832 5834 5835 5837 5838 5839 5839 5839 5839 5839 5838 5837 5836 5835 5834 5833 5831 5830 5828 5826 5824 5822 5820 5818 5815 5813 5811 5809 5807 5805 5802 5800 5797 5795 5793 5791 5789 5788 5786
5814 5817 5820 5823 5825 5827 5828 5830 5831 5832 5832 5832 5832 5832 5831 5830 5829 5828 5827 5826 5824 5822 5820 5818 5816 5813 5811 5808 5806 5804 5802 5799 5797 5795 5792 5789 5787 5785 5783 5781 5779 5777 5776
5807 5810 5813 5815 5818 5819 5821 5823 5824 5825 5825 5825 5825 5824 5824 5823 5822 5820 5819 5818 5816 5814 5812 5809 5807 5804 5802 5798 5796 5794 5792 5789 5787 5784 5781 5778 5776 5773 5771 5769 5767 5766 5764
5799 5802 5805 5807 5810 5812 5813 5815 5816 5817 5817 5817 5817 5816 5816 5815 5813 5812 5811 5809 5807 5805 5803 5800 5797 5794 5792 5788 5785 5782 5781 5780 5776 5772 5769 5766 5764 5761 5759 5757 5755 5753 5752
5791 5794 5797 5799 5802 5804 5806 5807 5808 5808 5809 5809 5808 5808 5807 5806 5805 5803 5802 5800 5798 5796 5793 5790 5787 5784 5781 5778 5774 5771 5768 5767 5764 5762 5758 5754 5751 5748 5746 5744 5742 5740 5739
5783 5786 5788 5791 5793 5795 5797 5798 5799 5800 5800 5800 5800 5799 5798 5796 5795 5793 5792 5790 5788 5786 5783 5780 5777 5774 5771 5768 5764 5759 5756 5753 5750 5748 5746 5742 5738 5735 5732 5730 5728 5726 5725
5775 5778 5780 5783 5785 5786 5788 5789 5791 5791 5791 5791 5791 5790 5789 5788 5786 5784 5782 5780 5778 5775 5773 5770 5767 5763 5760 5756 5752 5748 5744 5740 5736 5732 5731 5729 5724 5721 5717 5715 5713 5711 5710
5766 5769 5772 5774 5776 5778 5779 5780 5781 5782 5782 5782 5781 5781 5780 5778 5777 5775 5773 5770 5768 5765 5762 5759 5756 5752 5748 5744 5740 5736 5732 5728 5723 5718 5715 5712 5709 5706 5702 5699 5697 5695 5694
Wind_Speed
13 12 11 10 9 8 7 6 6 6 6 7 7 8 8 9 9 9 10 10 10 11 11 12 13 13 13 13 13 13 14 14 15 15 16 16 17 17 17 17 18 17 17
14 13 12 10 9 8 7 6 6 6 7 7 8 9 9 9 10 10 11 11 11 11 12 12 13 13 13 13 14 14 14 15 15 16 16 17 17 17 18 18 18 18 18
15 14 12 11 9 8 7 7 7 7 8 8 9 9 10 10 10 11 11 11 11 12 12 13 13 14 14 14 15 15 15 16 16 17 17 17 18 18 18 18 18 18 18
15 14 12 11 9 8 8 8 8 8 9 9 9 10 10 10 11 11 12 12 12 13 13 13 14 14 15 15 15 16 16 17 17 18 18 18 18 18 18 18 18 19 19
16 14 13 12 10 9 9 9 9 9 9 9 10 10 11 11 12 12 12 13 13 14 14 14 15 15 15 15 16 16 17 18 18 18 18 18 18 18 18 18 18 18 18
17 15 14 13 12 11 11 11 11 11 10 11 11 11 12 12 13 13 14 14 15 15 15 15 15 15 16 15 16 16 17 17 17 18 18 18 18 18 18 18 18 18 18
19 17 16 15 14 13 12 12 12 12 12 12 12 13 13 14 15 15 15 15 15 15 15 16 16 16 15 15 16 16 16 16 16 17 17 17 17 17 17 18 18 18 18
21 19 18 17 16 15 15 14 13 13 13 13 14 15 15 16 16 16 16 16 16 16 16 16 16 16 16 16 16 16 16 16 16 16 16 17 17 17 17 18 18 18 18
22 21 20 19 18 18 17 16 15 15 15 15 15 16 17 17 18 17 17 17 17 17 17 17 17 16 16 16 16 17 17 17 17 17 17 17 17 18 18 18 18 18 18
25 23 22 22 21 20 19 18 17 17 17 17 17 17 18 18 19 18 18 18 18 18 18 18 18 18 18 18 18 18 18 19 19 19 19 19 19 19 19 19 19 19 19
27 26 25 24 23 22 21 20 19 18 18 18 18 18 19 19 20 19 19 19 19 19 19 19 19 19 19 19 19 19 20 20 21 20 20 20 20 20 20 20 20 20 20
29 28 27 26 25 24 23 22 21 20 20 20 20 20 20 20 20 20 20 20 20 20 20 20 21 21 21 22 22 21 21 22 23 23 22 22 22 22 22 22 22 22 22
31 30 29 28 27 26 24 23 23 22 22 21 21 21 21 22 22 22 21 21 22 22 22 22 22 23 24 24 24 24 24 24 25 25 25 25 25 25 25 24 24 24 24
33 32 31 30 28 27 26 25 24 24 23 23 23 23 23 23 23 23 23 23 23 24 24 24 24 25 26 26 27 27 27 27 27 27 28 28 27 27 27 27 27 26 26
34 33 32 31 30 29 28 27 26 25 25 25 25 25 25 24 25 25 25 25 26 26 26 26 26 27 28 29 29 29 30 30 30 30 30 31 31 30 30 30 29 29 29
35 35 34 32 31 30 29 28 28 27 27 26 26 27 27 26 26 26 27 27 28 28 28 29 29 30 30 31 32 33 33 33 33 33 33 33 34 34 34 33 33 32 32
37 36 35 34 33 32 31 30 29 29 28 28 28 28 29 28 28 28 29 29 30 31 31 31 32 33 33 34 35 35 36 36 36 36 36 36 36 37 37 37 36 36 35
38 37 36 35 34 34 33 32 31 31 30 29 30 30 30 31 31 31 31 31 32 33 33 34 35 36 36 37 38 38 39 39 40 40 40 40 40 40 40 40 40 39 39
39 38 38 37 36 35 35 34 34 32 32 32 32 32 32 33 33 33 33 34 35 35 35 36 37 38 39 40 41 41 42 42 43 43 43 43 43 43 43 43 43 43 42
40 39 38 38 37 36 36 36 35 34 34 34 34 34 35 35 36 36 36 37 37 37 38 39 40 40 41 42 43 44 44 45 45 45 46 46 46 46 46 46 46 45 45
41 40 39 39 38 38 37 37 37 36 36 36 36 36 37 37 38 38 38 39 39 40 41 41 42 43 44 45 46 46 47 47 47 48 49 49 49 49 49 49 48 48 48
41 41 40 40 39 39 38 38 38 38 38 38 38 38 39 39 40 40 40 41 41 42 43 44 45 46 46 47 48 49 49 49 49 50 51 51 52 52 51 51 50 50 49
41 41 41 40 40 40 39 39 39 39 39 39 39 40 40 41 41 42 42 43 43 44 45 45 46 47 48 49 50 51 52 52 52 52 53 53 53 53 52 51 51 51 51
42 42 41 41 41 40 40 40 40 40 40 40 40 41 41 42 42 43 44 44 45 45 46 47 48 48 49 50 51 52 53 54 54 54 54 54 54 54 53 54 53 53 53
42 42 42 42 41 41 41 41 41 41 41 41 41 41 42 43 43 44 45 45 46 47 47 47 48 49 50 51 52 52 53 54 55 56 56 55 55 55 56 55 55 54 55
43 43 43 42 42 42 42 41 42 42 42 42 42 42 43 43 44 44 45 46 46 47 47 47 48 49 50 51 52 53 53 54 54 55 56 56 56 56 55 55 54 54 54
Wind_Direction
224 228 232 236 237 237 242 251 259 269 280 288 294 299 304 309 312 315 316 317 318 319 319 318 319 319 318 318 317 314 312 310 309 307 307 306 307 308 308 308 308 309 309
227 230 232 234 236 239 246 254 263 273 281 288 295 300 304 307 309 311 312 313 314 315 315 315 315 316 316 316 314 312 309 306 304 304 303 303 304 304 305 306 306 306 307
228 229 230 231 235 242 251 260 269 276 281 287 293 297 300 302 304 306 308 309 311 311 310 311 312 312 313 312 311 309 306 303 302 302 301 301 301 301 303 304 305 306 306
228 228 229 233 239 248 257 265 272 277 281 286 289 293 297 300 302 304 306 307 308 308 309 309 310 310 310 309 308 307 305 302 301 301 300 300 300 300 302 303 304 305 305
230 230 233 238 245 253 260 266 271 276 280 284 288 292 297 300 302 304 306 307 307 307 308 308 308 307 307 306 305 304 303 302 301 300 300 300 300 300 301 302 303 303 304
230 233 238 244 250 255 260 263 268 273 278 283 288 294 299 301 303 305 306 307 307 307 308 307 306 305 304 303 303 303 303 302 302 301 301 301 301 301 301 302 303 303 304
232 237 242 247 253 256 258 260 264 269 276 282 288 294 298 301 303 305 306 307 306 307 307 307 306 305 303 302 302 302 301 301 301 301 301 301 301 301 301 301 301 302 303
235 240 245 250 254 257 258 259 262 267 272 280 286 293 297 300 303 304 306 306 306 306 306 305 305 304 302 300 300 300 300 299 299 299 299 300 300 300 300 300 300 301 302
238 243 248 252 255 258 259 259 261 265 269 276 283 290 295 298 300 302 303 304 304 304 304 304 303 302 300 298 298 297 297 296 296 296 296 297 297 298 298 298 299 300 301
240 245 250 253 256 258 259 259 262 265 269 274 280 286 291 295 297 299 301 302 302 302 302 302 301 300 298 297 296 295 295 294 293 293 293 293 294 294 295 296 296 297 297
241 245 250 253 256 258 260 261 264 267 271 275 280 286 290 293 295 296 297 298 298 298 299 299 299 297 296 295 295 294 293 293 292 292 291 290 290 291 291 292 293 293 293
240 244 248 251 254 257 259 262 265 270 274 278 282 287 290 292 293 295 295 295 295 295 296 296 296 295 294 294 293 292 291 291 290 290 289 289 288 288 289 289 290 290 290
240 243 246 249 252 255 258 261 265 271 276 280 284 287 290 291 292 293 294 294 294 294 294 294 294 293 293 292 291 291 290 289 288 288 287 286 286 286 286 286 286 287 287
238 242 245 248 251 253 256 260 265 271 276 280 284 287 289 291 292 292 293 293 293 293 293 293 292 292 291 290 290 289 289 288 287 286 286 285 284 284 284 284 284 284 284
236 240 243 246 248 252 255 260 264 269 274 278 281 285 288 290 291 292 293 293 293 292 292 292 292 291 290 289 289 288 288 287 287 286 286 285 284 283 282 281 281 282 282
234 237 240 243 246 250 254 258 262 267 271 276 280 283 286 288 289 290 291 291 291 291 292 292 291 291 291 290 289 288 288 287 286 285 285 284 283 282 280 279 279 279 279
234 236 239 242 245 249 253 256 260 265 269 274 277 280 283 285 286 287 288 289 290 291 291 291 291 291 290 290 289 288 288 287 286 285 284 283 282 281 280 279 278 277 277
235 237 239 242 245 249 252 255 259 263 268 271 274 277 280 283 284 285 287 287 288 289 290 291 291 291 290 290 289 288 288 287 286 285 284 283 282 281 280 279 277 277 276
236 238 240 243 245 249 252 255 259 263 266 270 273 275 278 281 283 284 286 287 288 289 290 290 290 290 290 289 289 288 288 287 286 285 285 283 282 281 280 278 277 276 275
237 239 242 244 247 250 253 257 260 263 266 269 272 275 277 279 282 284 285 286 288 289 289 289 290 290 290 289 289 289 288 287 287 286 285 283 282 281 280 279 277 276 275
238 240 243 246 248 251 254 257 260 263 266 269 272 275 277 279 281 283 284 286 287 288 289 290 290 290 290 290 289 289 289 289 289 287 286 284 283 282 281 279 278 277 275
240 242 244 246 249 252 255 258 261 264 267 270 272 275 277 279 281 282 284 285 286 287 288 289 290 290 290 290 290 289 289 289 289 288 286 285 284 283 282 280 278 277 276
241 243 246 248 250 253 256 259 262 265 268 270 273 275 277 279 280 281 283 284 285 287 288 289 289 290 290 290 290 290 290 289 288 287 287 286 285 283 282 280 278 276 275
242 244 247 250 252 254 256 259 262 265 267 270 272 275 277 279 280 282 283 284 286 287 288 288 289 290 290 290 290 290 290 290 289 288 287 286 284 283 280 279 277 275 274
242 244 247 250 253 255 258 260 262 265 268 270 272 274 276 277 279 281 283 284 285 287 288 288 289 290 291 291 291 290 290 290 290 289 288 287 285 283 281 279 277 275 273
243 245 247 250 253 256 259 261 263 266 268 270 272 273 275 276 278 280 282 283 285 286 287 288 289 290 291 291 291 291 291 291 290 290 289 288 285 283 281 279 276 274 273